M I D A S
Marine Information and Data Acquisition System
Tripno 1824 of the Zeeleeuw from 2009-12-10 09:05:04 to 2009-12-10 17:14:51
Back to CruiseResearch ActivitiesStationsMapUnderway DataData graphs

EquipmentUnitsComments
TimeDGPSUTC
LatitudeDGPSDM.mWGS84
LongitudeDGPSDM.mWGS84
SpeedMeteo Stationm/sRelative wind speed
DirectionMeteo StationdegRelative wind direction
TemperatureMeteo Stationdeg CelciusAir temperature
PressureMeteo StationPaAtmospheric pressure
HumidityMeteo Station%Relative humidity
Missing or incorrect values are displayed as -999
Metereological data collected by the RV Zeeleeuw from 2009-12-10 09:10:59 to 2009-12-10 17:22:13
Time Latitude Longitude Speed Direction Temperature Pressure Humidity
2009-12-10 09:12 51°13.68 2°55.895 4.9 51 10.6 102390 42
2009-12-10 09:13 51°13.715 2°55.796 3.5 51 10.6 102390 42
2009-12-10 09:14 51°13.759 2°55.708 6.3 57 10.8 102390 42
2009-12-10 09:15 51°13.822 2°55.645 9.3 52 10.8 102390 42
2009-12-10 09:16 51°13.896 2°55.624 8.8 36 10.7 102380 41
2009-12-10 09:17 51°13.935 2°55.633 8.5 19 10.6 102390 42
2009-12-10 09:18 51°13.936 2°55.646 6.6 359 10.5 102390 43
2009-12-10 09:19 51°13.945 2°55.584 9.1 286 10.5 102380 41
2009-12-10 09:20 51°14.036 2°55.504 14.9 303 10.5 102370 43
2009-12-10 09:21 51°14.161 2°55.384 15.7 305 10.5 102360 42
2009-12-10 09:22 51°14.28 2°55.206 17 327 10.4 102380 42
2009-12-10 09:23 51°14.394 2°54.991 18.5 327 10.5 102380 43
2009-12-10 09:24 51°14.54 2°54.851 15.5 309 10.5 102350 43
2009-12-10 09:25 51°14.694 2°54.727 16.5 304 10.5 102380 43
2009-12-10 09:26 51°14.847 2°54.605 16.7 304 10.5 102370 43
2009-12-10 09:27 51°14.994 2°54.483 19 307 10.4 102370 43
2009-12-10 09:28 51°15.148 2°54.35 16.7 308 10.5 102390 43
2009-12-10 09:29 51°15.303 2°54.213 15 308 10.5 102400 43
2009-12-10 09:30 51°15.452 2°54.08 13.9 305 10.4 102390 43
2009-12-10 09:31 51°15.605 2°53.94 17.5 307 10.4 102400 44
2009-12-10 09:32 51°15.763 2°53.805 18 307 10.4 102400 43
2009-12-10 09:33 51°15.915 2°53.675 17 309 10.4 102370 42
2009-12-10 09:34 51°16.071 2°53.542 15.2 303 10.5 102380 42
2009-12-10 09:35 51°16.221 2°53.415 16.6 308 10.5 102380 42
2009-12-10 09:36 51°16.374 2°53.28 15.4 310 10.5 102400 43
2009-12-10 09:37 51°16.532 2°53.143 18.8 305 10.4 102380 43
2009-12-10 09:38 51°16.687 2°53.016 14.1 309 10.5 102420 44
2009-12-10 09:39 51°16.84 2°52.887 15.8 307 10.5 102390 43
2009-12-10 09:40 51°16.995 2°52.761 16.6 304 10.4 102390 43
2009-12-10 09:41 51°17.15 2°52.63 16.2 306 10.5 102420 43
2009-12-10 09:42 51°17.322 2°52.572 13.8 310 10.5 102390 44
2009-12-10 09:43 51°17.507 2°52.575 13.9 309 10.5 102400 44
2009-12-10 09:44 51°17.692 2°52.581 12.3 303 10.4 102380 42
2009-12-10 09:45 51°17.871 2°52.593 14.8 303 10.4 102370 42
2009-12-10 09:46 51°18.05 2°52.614 15 307 10.5 102400 44
2009-12-10 09:47 51°18.218 2°52.733 15.3 308 10.5 102400 43
2009-12-10 09:48 51°18.338 2°52.957 7.4 309 10.5 102430 43
2009-12-10 09:49 51°18.4 2°53.234 5 309 10.4 102440 43
2009-12-10 09:50 51°18.478 2°53.511 7.5 305 10.5 102440 42
2009-12-10 09:51 51°18.566 2°53.771 7.7 286 10.5 102430 43
2009-12-10 09:52 51°18.657 2°54.028 9.6 305 10.4 102450 42
2009-12-10 09:53 51°18.755 2°54.282 7.9 283 10.4 102450 43
2009-12-10 09:54 51°18.853 2°54.531 8.8 280 10.5 102450 43
2009-12-10 09:55 51°18.941 2°54.791 10.1 279 10.5 102450 43
2009-12-10 09:56 51°19.019 2°55.068 7.2 283 10.4 102460 42
2009-12-10 09:57 51°19.101 2°55.326 6.7 283 10.4 102450 42
2009-12-10 09:58 51°19.179 2°55.593 8.1 279 10.4 102450 42
2009-12-10 09:59 51°19.244 2°55.869 6.5 309 10.4 102460 42
2009-12-10 10:00 51°19.305 2°56.144 6.5 278 10.4 102460 42
2009-12-10 10:01 51°19.365 2°56.421 10 309 10.4 102470 44
2009-12-10 10:02 51°19.422 2°56.697 11.7 282 10.4 102470 43
2009-12-10 10:03 51°19.484 2°56.972 7.5 307 10.4 102480 42
2009-12-10 10:04 51°19.548 2°57.243 8.9 284 10.4 102460 43
2009-12-10 10:05 51°19.601 2°57.524 6.7 279 10.3 102490 42
2009-12-10 10:06 51°19.645 2°57.807 5.1 283 10.3 102470 42
2009-12-10 10:07 51°19.689 2°58.088 8.2 284 10.4 102470 44
2009-12-10 10:08 51°19.732 2°58.37 6.1 308 10.3 102470 42
2009-12-10 10:09 51°19.763 2°58.656 7.9 78 10.3 102470 45
2009-12-10 10:10 51°19.761 2°58.946 7.4 308 10.3 102470 41
2009-12-10 10:11 51°19.763 2°59.235 7.7 277 10.3 102480 41
2009-12-10 10:12 51°19.8 2°59.519 6.3 310 10.3 102470 41
2009-12-10 10:13 51°19.863 2°59.795 5.8 279 10.3 102480 42
2009-12-10 10:14 51°19.928 3°0.068 11.7 280 10.4 102480 41
2009-12-10 10:15 51°19.991 3°0.342 8 282 10.3 102470 43
2009-12-10 10:16 51°20.07 3°0.602 7.8 283 10.4 102470 44
2009-12-10 10:17 51°20.149 3°0.865 8.4 305 10.4 102480 44
2009-12-10 10:18 51°20.225 3°1.125 9.5 279 10.4 102480 41
2009-12-10 10:19 51°20.304 3°1.383 7.4 307 10.4 102490 41
2009-12-10 10:20 51°20.376 3°1.642 6.7 280 10.4 102480 43
2009-12-10 10:21 51°20.445 3°1.906 6.8 286 10.4 102480 42
2009-12-10 10:22 51°20.517 3°2.166 6.3 277 10.3 102480 44
2009-12-10 10:23 51°20.589 3°2.426 6.2 280 10.3 102480 41
2009-12-10 10:24 51°20.663 3°2.684 5.7 285 10.2 102470 42
2009-12-10 10:25 51°20.73 3°2.946 5.2 282 10.3 102480 44
2009-12-10 10:26 51°20.786 3°3.214 6.8 308 10.3 102490 39
2009-12-10 10:27 51°20.846 3°3.475 10.7 280 10.2 102490 42
2009-12-10 10:28 51°20.904 3°3.736 8.3 301 10.2 102480 41
2009-12-10 10:29 51°20.964 3°4 7.6 282 10.2 102490 44
2009-12-10 10:30 51°21.023 3°4.264 8.1 296 10.1 102490 42
2009-12-10 10:31 51°21.08 3°4.528 7.5 280 10.2 102490 41
2009-12-10 10:32 51°21.136 3°4.793 7.1 280 10.1 102500 41
2009-12-10 10:33 51°21.195 3°5.055 5.7 284 10.1 102500 44
2009-12-10 10:34 51°21.253 3°5.315 6.8 284 10.1 102480 43
2009-12-10 10:35 51°21.312 3°5.574 5.6 279 10.1 102480 42
2009-12-10 10:36 51°21.373 3°5.828 5.9 280 10 102480 43
2009-12-10 10:37 51°21.436 3°6.083 9.7 309 10 102500 44
2009-12-10 10:38 51°21.534 3°6.307 13.1 285 10 102480 43
2009-12-10 10:39 51°21.65 3°6.513 9.3 304 10 102480 42
2009-12-10 10:40 51°21.748 3°6.742 6.6 280 10 102490 41
2009-12-10 10:41 51°21.828 3°6.992 7.3 281 10 102480 41
2009-12-10 10:42 51°21.89 3°7.251 7 282 9.9 102490 43
2009-12-10 10:43 51°21.944 3°7.516 6.7 280 10 102490 44
2009-12-10 10:44 51°21.984 3°7.776 6.9 59 9.9 102500 42
2009-12-10 10:45 51°22.019 3°8.043 5.8 283 9.9 102490 41
2009-12-10 10:46 51°22.055 3°8.309 6.3 305 10 102500 44
2009-12-10 10:47 51°22.087 3°8.577 5.5 81 10 102490 44
2009-12-10 10:48 51°22.12 3°8.846 5.1 304 10 102500 44
2009-12-10 10:49 51°22.153 3°9.113 4.7 284 9.9 102490 41
2009-12-10 10:50 51°22.179 3°9.332 8.7 86 10 102500 44
2009-12-10 10:51 51°22.198 3°9.419 9.7 288 9.9 102500 43
2009-12-10 10:52 51°22.215 3°9.46 7.7 282 9.9 102500 42
2009-12-10 10:53 51°22.27 3°9.563 10.5 281 9.9 102500 44
2009-12-10 10:54 51°22.405 3°9.69 13.7 281 9.9 102470 42
2009-12-10 10:55 51°22.524 3°9.882 8.4 285 9.9 102490 42
2009-12-10 10:56 51°22.574 3°10.14 5.5 284 10 102500 43
2009-12-10 10:57 51°22.62 3°10.41 5.4 75 9.9 102490 42
2009-12-10 10:58 51°22.648 3°10.674 5.6 77 9.9 102500 40
2009-12-10 10:59 51°22.654 3°10.941 5.8 75 9.9 102500 41
2009-12-10 11:00 51°22.646 3°11.206 5.3 81 9.9 102500 43
2009-12-10 11:01 51°22.612 3°11.46 5.8 74 9.8 102510 41
2009-12-10 11:02 51°22.598 3°11.721 4.7 291 9.9 102500 44
2009-12-10 11:03 51°22.602 3°11.985 4.9 282 9.8 102500 41
2009-12-10 11:04 51°22.609 3°12.239 6.7 275 9.8 102500 41
2009-12-10 11:05 51°22.617 3°12.495 7.1 76 9.8 102500 42
2009-12-10 11:06 51°22.628 3°12.746 4.8 75 9.8 102510 41
2009-12-10 11:07 51°22.63 3°13.002 6.9 76 9.8 102510 41
2009-12-10 11:08 51°22.617 3°13.226 7.8 79 9.8 102510 44
2009-12-10 11:09 51°22.559 3°13.255 11.2 25 9.9 102500 42
2009-12-10 11:10 51°22.511 3°13.197 10.4 357 9.8 102480 44
2009-12-10 11:11 51°22.491 3°13.127 11.3 352 9.8 102490 42
2009-12-10 11:12 51°22.482 3°13.11 13 14 9.7 102470 44
2009-12-10 11:13 51°22.482 3°13.1 11.8 28 9.7 102490 43
2009-12-10 11:14 51°22.488 3°13.084 11.5 40 9.7 102490 43
2009-12-10 11:15 51°22.494 3°13.066 10.8 39 9.8 102490 42
2009-12-10 11:16 51°22.499 3°13.047 10.5 39 9.8 102500 43
2009-12-10 11:17 51°22.499 3°13.029 9.6 39 9.7 102500 44
2009-12-10 11:18 51°22.494 3°13.01 11.2 33 9.7 102500 42
2009-12-10 11:19 51°22.488 3°12.99 9.8 29 9.8 102500 43
2009-12-10 11:20 51°22.483 3°12.972 12.3 23 9.7 102510 44
2009-12-10 11:21 51°22.479 3°12.955 12.2 22 9.7 102510 43
2009-12-10 11:22 51°22.476 3°12.939 10.4 18 9.7 102510 43
2009-12-10 11:23 51°22.473 3°12.924 10.5 24 9.7 102500 42
2009-12-10 11:24 51°22.469 3°12.907 11.4 23 9.6 102500 42
2009-12-10 11:25 51°22.466 3°12.891 11.5 25 9.6 102510 44
2009-12-10 11:26 51°22.463 3°12.874 10.7 27 9.7 102510 42
2009-12-10 11:27 51°22.456 3°12.855 11.7 21 9.7 102500 43
2009-12-10 11:28 51°22.426 3°12.76 12.8 283 9.7 102500 42
2009-12-10 11:29 51°22.479 3°12.684 13 280 9.7 102500 43
2009-12-10 11:30 51°22.522 3°12.812 6.8 285 9.7 102530 41
2009-12-10 11:31 51°22.584 3°12.985 8.8 77 9.7 102530 41
2009-12-10 11:32 51°22.622 3°13.179 7.6 283 9.7 102530 41
2009-12-10 11:33 51°22.599 3°13.269 9.3 35 9.8 102530 41
2009-12-10 11:34 51°22.574 3°13.26 11.1 25 9.8 102510 42
2009-12-10 11:35 51°22.57 3°13.242 9.5 24 9.7 102520 42
2009-12-10 11:36 51°22.567 3°13.226 11.5 26 9.7 102530 42
2009-12-10 11:37 51°22.56 3°13.211 13.4 26 9.7 102510 42
2009-12-10 11:38 51°22.552 3°13.192 11.1 22 9.7 102520 42
2009-12-10 11:39 51°22.545 3°13.174 10.8 20 9.7 102530 43
2009-12-10 11:40 51°22.54 3°13.158 12.7 23 9.6 102540 44
2009-12-10 11:41 51°22.534 3°13.143 10.8 26 9.7 102530 43
2009-12-10 11:42 51°22.529 3°13.125 9.7 26 9.7 102520 43
2009-12-10 11:43 51°22.523 3°13.107 10.8 19 9.7 102530 43
2009-12-10 11:44 51°22.518 3°13.091 10.9 22 9.6 102520 42
2009-12-10 11:45 51°22.512 3°13.076 11.8 21 9.7 102530 43
2009-12-10 11:46 51°22.506 3°13.059 12.4 26 9.7 102530 42
2009-12-10 11:47 51°22.499 3°13.041 8.6 20 9.6 102530 43
2009-12-10 11:48 51°22.492 3°13.023 12.2 24 9.6 102530 42
2009-12-10 11:49 51°22.487 3°13.004 10.2 21 9.6 102520 42
2009-12-10 11:50 51°22.482 3°12.988 10 26 9.6 102520 42
2009-12-10 11:51 51°22.479 3°12.972 10.5 27 9.6 102530 42
2009-12-10 11:52 51°22.475 3°12.955 10.1 27 9.6 102520 43
2009-12-10 11:53 51°22.469 3°12.936 10.7 22 9.6 102530 42
2009-12-10 11:54 51°22.463 3°12.917 11.2 25 9.6 102520 43
2009-12-10 11:55 51°22.456 3°12.897 12.7 25 9.6 102530 44
2009-12-10 11:56 51°22.451 3°12.878 11.5 26 9.6 102530 44
2009-12-10 11:57 51°22.445 3°12.859 10.3 26 9.6 102520 41
2009-12-10 11:58 51°22.439 3°12.839 10.3 22 9.6 102530 43
2009-12-10 11:59 51°22.433 3°12.818 10.2 24 9.6 102540 42
2009-12-10 12:00 51°22.429 3°12.801 9.3 23 9.5 102530 42
2009-12-10 12:01 51°22.402 3°12.782 10.2 41 9.5 102540 42
2009-12-10 12:02 51°22.378 3°12.81 9.3 80 9.6 102560 41
2009-12-10 12:03 51°22.399 3°12.85 6.8 280 9.6 102550 41
2009-12-10 12:04 51°22.442 3°12.906 8.4 281 9.6 102540 41
2009-12-10 12:05 51°22.499 3°12.976 12.4 282 9.6 102540 42
2009-12-10 12:06 51°22.574 3°13.067 11.3 284 9.6 102550 43
2009-12-10 12:07 51°22.675 3°13.192 11.1 281 9.6 102540 42
2009-12-10 12:08 51°22.795 3°13.355 9.4 280 9.6 102550 43
2009-12-10 12:09 51°22.914 3°13.528 9.9 282 9.6 102530 44
2009-12-10 12:10 51°23.033 3°13.703 10.9 279 9.7 102550 44
2009-12-10 12:11 51°23.153 3°13.873 12 281 9.7 102540 42
2009-12-10 12:12 51°23.275 3°14.043 11 282 9.7 102550 43
2009-12-10 12:13 51°23.395 3°14.215 10.7 281 9.7 102540 43
2009-12-10 12:14 51°23.519 3°14.376 13.9 282 9.7 102530 43
2009-12-10 12:15 51°23.651 3°14.526 12.3 282 9.7 102520 42
2009-12-10 12:16 51°23.789 3°14.671 10.6 304 9.7 102530 42
2009-12-10 12:17 51°23.925 3°14.82 13.1 304 9.7 102520 42
2009-12-10 12:18 51°24.064 3°14.953 13.2 306 9.6 102530 44
2009-12-10 12:19 51°24.112 3°15.125 7.9 53 9.6 102550 41
2009-12-10 12:20 51°24.126 3°15.3 8.7 58 9.6 102550 44
2009-12-10 12:21 51°24.076 3°15.338 8.4 33 9.7 102530 42
2009-12-10 12:22 51°24.015 3°15.347 8.3 50 9.7 102530 42
2009-12-10 12:23 51°23.944 3°15.373 10.7 34 9.7 102550 41
2009-12-10 12:24 51°23.877 3°15.351 11.6 30 9.6 102510 43
2009-12-10 12:25 51°23.813 3°15.302 9.8 24 9.7 102520 42
2009-12-10 12:26 51°23.762 3°15.244 12.5 19 9.6 102520 44
2009-12-10 12:27 51°23.718 3°15.179 11 9 9.6 102520 42
2009-12-10 12:28 51°23.684 3°15.111 11.5 5 9.6 102510 43
2009-12-10 12:29 51°23.658 3°15.03 10.6 354 9.6 102520 41
2009-12-10 12:30 51°23.643 3°14.946 12 341 9.6 102510 44
2009-12-10 12:31 51°23.644 3°14.85 11.4 331 9.6 102530 44
2009-12-10 12:32 51°23.664 3°14.743 10.1 333 9.7 102550 42
2009-12-10 12:33 51°23.677 3°14.639 10.2 338 9.7 102530 42
2009-12-10 12:34 51°23.69 3°14.54 11.7 333 9.6 102540 42
2009-12-10 12:35 51°23.703 3°14.44 10 332 9.6 102540 44
2009-12-10 12:36 51°23.717 3°14.34 12.5 334 9.7 102540 44
2009-12-10 12:37 51°23.729 3°14.24 10.8 338 9.7 102540 41
2009-12-10 12:38 51°23.738 3°14.131 10.6 336 9.7 102540 43
2009-12-10 12:39 51°23.745 3°14.027 10.8 336 9.7 102550 44
2009-12-10 12:40 51°23.747 3°13.937 11.6 340 9.6 102540 43
2009-12-10 12:41 51°23.751 3°13.837 12.1 339 9.7 102540 42
2009-12-10 12:42 51°23.758 3°13.735 12.6 341 9.7 102540 42
2009-12-10 12:43 51°23.764 3°13.638 12.8 339 9.7 102540 41
2009-12-10 12:44 51°23.771 3°13.533 11.2 338 9.6 102540 43
2009-12-10 12:45 51°23.779 3°13.425 11.3 341 9.7 102550 40
2009-12-10 12:46 51°23.786 3°13.318 10.7 340 9.7 102540 43
2009-12-10 12:47 51°23.793 3°13.209 11 342 9.7 102560 42
2009-12-10 12:48 51°23.789 3°13.114 13.2 345 9.7 102570 42
2009-12-10 12:49 51°23.783 3°13.01 11.6 343 9.7 102560 42
2009-12-10 12:50 51°23.778 3°12.912 11.3 345 9.7 102580 42
2009-12-10 12:51 51°23.769 3°12.812 13.3 340 9.6 102560 43
2009-12-10 12:52 51°23.758 3°12.714 14.2 349 9.6 102550 42
2009-12-10 12:53 51°23.739 3°12.611 13.3 350 9.6 102560 42
2009-12-10 12:54 51°23.722 3°12.5 12.4 350 9.6 102550 43
2009-12-10 12:55 51°23.703 3°12.401 12.1 353 9.6 102560 42
2009-12-10 12:56 51°23.681 3°12.303 13.1 355 9.6 102560 42
2009-12-10 12:57 51°23.659 3°12.21 12.3 353 9.6 102560 42
2009-12-10 12:58 51°23.636 3°12.117 11 357 9.6 102570 42
2009-12-10 12:59 51°23.615 3°12.024 12.1 354 9.6 102570 43
2009-12-10 13:00 51°23.593 3°11.934 11.5 351 9.6 102570 41
2009-12-10 13:01 51°23.571 3°11.853 10.6 351 9.6 102570 43
2009-12-10 13:02 51°23.555 3°11.774 11.9 351 9.5 102570 42
2009-12-10 13:03 51°23.535 3°11.727 10.3 5 9.5 102570 41
2009-12-10 13:04 51°23.514 3°11.695 9.2 9 9.6 102570 41
2009-12-10 13:05 51°23.478 3°11.638 10.8 5 9.5 102560 42
2009-12-10 13:06 51°23.441 3°11.478 13.3 1 9.5 102550 42
2009-12-10 13:07 51°23.324 3°11.402 8.2 27 9.6 102570 40
2009-12-10 13:08 51°23.159 3°11.38 7.8 35 9.6 102590 43
2009-12-10 13:09 51°23 3°11.421 7.3 40 9.5 102600 43
2009-12-10 13:10 51°22.871 3°11.448 8.5 40 9.5 102590 41
2009-12-10 13:11 51°22.772 3°11.433 9.6 37 9.5 102580 43
2009-12-10 13:12 51°22.681 3°11.409 9.2 38 9.6 102580 42
2009-12-10 13:13 51°22.585 3°11.388 8.6 32 9.5 102590 43
2009-12-10 13:14 51°22.488 3°11.369 9.1 28 9.5 102580 43
2009-12-10 13:15 51°22.415 3°11.374 6.2 51 9.5 102590 41
2009-12-10 13:16 51°22.409 3°11.417 7.1 306 9.6 102600 42
2009-12-10 13:17 51°22.409 3°11.414 10 307 9.6 102600 43
2009-12-10 13:18 51°22.407 3°11.404 11.9 306 9.6 102610 43
2009-12-10 13:19 51°22.4 3°11.391 10.4 305 9.6 102590 43
2009-12-10 13:20 51°22.389 3°11.376 11.8 302 9.6 102610 41
2009-12-10 13:21 51°22.377 3°11.362 6.1 308 9.6 102610 43
2009-12-10 13:22 51°22.365 3°11.349 8.2 307 9.6 102600 41
2009-12-10 13:23 51°22.389 3°11.367 10.1 303 9.6 102590 41
2009-12-10 13:24 51°22.479 3°11.366 13.4 306 9.7 102590 42
2009-12-10 13:25 51°22.626 3°11.309 13 305 9.7 102570 42
2009-12-10 13:26 51°22.788 3°11.244 13.5 311 9.7 102540 42
2009-12-10 13:27 51°22.944 3°11.177 14.6 307 9.7 102570 41
2009-12-10 13:28 51°23.103 3°11.1 14.8 304 9.7 102570 42
2009-12-10 13:29 51°23.25 3°10.994 16.1 305 9.7 102560 42
2009-12-10 13:30 51°23.382 3°10.818 17.2 323 9.7 102560 42
2009-12-10 13:31 51°23.513 3°10.638 15.5 306 9.7 102580 41
2009-12-10 13:32 51°23.651 3°10.454 14.3 305 9.7 102580 42
2009-12-10 13:33 51°23.789 3°10.266 15.1 306 9.7 102570 41
2009-12-10 13:34 51°23.924 3°10.088 16.5 305 9.7 102560 42
2009-12-10 13:35 51°24.064 3°9.914 14.6 304 9.7 102580 42
2009-12-10 13:36 51°24.196 3°9.749 14.8 323 9.7 102570 42
2009-12-10 13:37 51°24.332 3°9.578 15.1 326 9.7 102580 42
2009-12-10 13:38 51°24.462 3°9.392 15.7 328 9.7 102570 42
2009-12-10 13:39 51°24.564 3°9.163 16.7 335 9.7 102580 42
2009-12-10 13:40 51°24.628 3°8.892 15.6 337 9.7 102580 42
2009-12-10 13:41 51°24.685 3°8.628 14.6 336 9.7 102580 43
2009-12-10 13:42 51°24.746 3°8.361 14.9 337 9.7 102590 42
2009-12-10 13:43 51°24.803 3°8.129 16 335 9.7 102580 43
2009-12-10 13:44 51°24.862 3°7.893 13.1 337 9.6 102590 43
2009-12-10 13:45 51°24.925 3°7.664 16.4 334 9.7 102580 42
2009-12-10 13:46 51°25.029 3°7.493 15 324 9.7 102570 42
2009-12-10 13:47 51°25.161 3°7.375 14.5 304 9.6 102570 42
2009-12-10 13:48 51°25.304 3°7.345 13 309 9.6 102550 44
2009-12-10 13:49 51°25.449 3°7.387 12.6 304 9.6 102560 42
2009-12-10 13:50 51°25.572 3°7.531 7.6 306 9.6 102550 43
2009-12-10 13:51 51°25.677 3°7.727 12 307 9.7 102590 42
2009-12-10 13:52 51°25.778 3°7.93 7.7 303 9.7 102580 43
2009-12-10 13:53 51°25.87 3°8.141 8.7 308 9.7 102600 43
2009-12-10 13:54 51°25.96 3°8.357 11.6 302 9.7 102570 40
2009-12-10 13:55 51°26.052 3°8.574 9.7 307 9.7 102580 42
2009-12-10 13:56 51°26.15 3°8.785 9.3 302 9.7 102570 41
2009-12-10 13:57 51°26.246 3°8.998 8.5 307 9.8 102590 40
2009-12-10 13:58 51°26.335 3°9.221 11 306 9.8 102560 42
2009-12-10 13:59 51°26.43 3°9.441 10.3 308 9.8 102570 43
2009-12-10 14:00 51°26.529 3°9.657 9.6 303 9.8 102590 41
2009-12-10 14:01 51°26.628 3°9.871 8.1 308 9.8 102600 43
2009-12-10 14:02 51°26.724 3°10.091 12.8 302 9.8 102590 44
2009-12-10 14:03 51°26.82 3°10.314 11.6 305 9.8 102590 44
2009-12-10 14:04 51°26.916 3°10.535 10.7 304 9.9 102590 41
2009-12-10 14:05 51°26.995 3°10.773 6.1 310 9.9 102600 40
2009-12-10 14:06 51°27.042 3°11.038 8 309 9.9 102620 43
2009-12-10 14:07 51°27.082 3°11.297 9.7 307 9.9 102610 40
2009-12-10 14:08 51°27.124 3°11.561 8.9 304 9.9 102600 42
2009-12-10 14:09 51°27.163 3°11.828 7.6 303 9.9 102610 41
2009-12-10 14:10 51°27.208 3°12.09 7.5 303 9.8 102620 42
2009-12-10 14:11 51°27.253 3°12.351 7.6 311 9.8 102590 42
2009-12-10 14:12 51°27.296 3°12.614 11.7 306 9.8 102630 40
2009-12-10 14:13 51°27.34 3°12.877 7.5 309 9.8 102600 41
2009-12-10 14:14 51°27.382 3°13.14 8.7 305 9.8 102610 44
2009-12-10 14:15 51°27.426 3°13.402 7.3 306 9.8 102630 43
2009-12-10 14:16 51°27.335 3°13.631 3.6 53 9.8 102620 40
2009-12-10 14:17 51°27.183 3°13.806 2.9 58 9.9 102610 40
2009-12-10 14:18 51°27.12 3°14.029 7.9 307 10 102620 43
2009-12-10 14:19 51°27.13 3°14.109 10.7 310 10 102610 44
2009-12-10 14:20 51°27.117 3°14.13 5.5 310 9.9 102610 40
2009-12-10 14:21 51°27.097 3°14.142 5.3 302 9.8 102610 43
2009-12-10 14:22 51°27.072 3°14.15 3.9 304 9.8 102630 40
2009-12-10 14:23 51°27.044 3°14.159 7.6 302 9.7 102630 40
2009-12-10 14:24 51°27.019 3°14.166 4.3 304 9.7 102630 45
2009-12-10 14:25 51°26.995 3°14.173 5.7 303 9.7 102620 42
2009-12-10 14:26 51°26.969 3°14.18 7 309 9.7 102620 42
2009-12-10 14:27 51°26.943 3°14.19 7 310 9.7 102640 44
2009-12-10 14:28 51°26.919 3°14.2 7.5 308 9.8 102630 44
2009-12-10 14:29 51°26.926 3°14.26 10.6 304 9.7 102620 42
2009-12-10 14:30 51°27.032 3°14.325 11.8 305 9.7 102590 42
2009-12-10 14:31 51°27.131 3°14.366 12.7 311 9.7 102580 43
2009-12-10 14:32 51°27.138 3°14.397 12.3 304 9.7 102610 41
2009-12-10 14:33 51°27.13 3°14.423 9.8 306 9.7 102610 41
2009-12-10 14:34 51°27.111 3°14.443 6.9 303 9.7 102620 42
2009-12-10 14:35 51°27.092 3°14.466 11.7 307 9.8 102620 41
2009-12-10 14:36 51°27.14 3°14.484 11.7 327 9.8 102610 42
2009-12-10 14:37 51°27.153 3°14.377 11.2 355 9.7 102610 42
2009-12-10 14:38 51°27.12 3°14.3 9.8 4 9.7 102610 42
2009-12-10 14:39 51°27.076 3°14.214 10.8 1 9.7 102620 43
2009-12-10 14:40 51°27.043 3°14.11 11.2 351 9.7 102610 44
2009-12-10 14:41 51°27.024 3°14.013 11.2 350 9.6 102610 41
2009-12-10 14:42 51°27.007 3°13.923 10.9 344 9.6 102600 41
2009-12-10 14:43 51°27.007 3°13.831 10.4 339 9.6 102620 45
2009-12-10 14:44 51°27.022 3°13.743 10.8 334 9.6 102620 44
2009-12-10 14:45 51°27.04 3°13.646 11.4 338 9.6 102610 40
2009-12-10 14:46 51°27.054 3°13.556 12.6 335 9.6 102620 41
2009-12-10 14:47 51°27.067 3°13.465 11.7 335 9.7 102620 42
2009-12-10 14:48 51°27.079 3°13.377 9.2 336 9.7 102620 44
2009-12-10 14:49 51°27.083 3°13.302 14.3 336 9.6 102620 42
2009-12-10 14:50 51°27.099 3°13.206 12.6 336 9.6 102620 43
2009-12-10 14:51 51°27.115 3°13.111 11.6 340 9.7 102630 41
2009-12-10 14:52 51°27.132 3°13.014 13.1 336 9.7 102630 43
2009-12-10 14:53 51°27.146 3°12.931 11.2 337 9.7 102630 40
2009-12-10 14:54 51°27.153 3°12.848 11.4 336 9.7 102620 42
2009-12-10 14:55 51°27.165 3°12.76 9.9 338 9.6 102630 44
2009-12-10 14:56 51°27.175 3°12.665 11.5 344 9.6 102620 44
2009-12-10 14:57 51°27.174 3°12.562 12.3 342 9.6 102630 44
2009-12-10 14:58 51°27.174 3°12.461 12 344 9.7 102620 42
2009-12-10 14:59 51°27.174 3°12.36 12.5 341 9.7 102630 42
2009-12-10 15:00 51°27.172 3°12.258 12.5 341 9.6 102630 42
2009-12-10 15:01 51°27.171 3°12.165 10.7 345 9.6 102640 42
2009-12-10 15:02 51°27.161 3°12.062 11.3 344 9.6 102630 44
2009-12-10 15:03 51°27.147 3°11.959 10.4 345 9.6 102630 43
2009-12-10 15:04 51°27.124 3°11.865 10.9 356 9.7 102620 41
2009-12-10 15:05 51°27.085 3°11.757 10 354 9.6 102620 43
2009-12-10 15:06 51°27.045 3°11.647 8.1 355 9.6 102630 44
2009-12-10 15:07 51°27.006 3°11.55 11.8 352 9.6 102630 43
2009-12-10 15:08 51°26.969 3°11.461 10.9 354 9.6 102640 42
2009-12-10 15:09 51°26.935 3°11.369 11.9 359 9.6 102630 43
2009-12-10 15:10 51°26.897 3°11.288 10.9 356 9.6 102630 41
2009-12-10 15:11 51°26.861 3°11.204 12.2 354 9.6 102640 43
2009-12-10 15:12 51°26.826 3°11.108 10.5 356 9.6 102640 41
2009-12-10 15:13 51°26.781 3°11.019 9.5 6 9.6 102640 43
2009-12-10 15:14 51°26.719 3°10.953 9.6 9 9.6 102640 42
2009-12-10 15:15 51°26.66 3°10.894 11.1 8 9.5 102640 42
2009-12-10 15:16 51°26.601 3°10.834 9.7 8 9.5 102650 43
2009-12-10 15:17 51°26.547 3°10.783 9.9 9 9.5 102650 40
2009-12-10 15:18 51°26.501 3°10.741 7.8 7 9.5 102650 43
2009-12-10 15:19 51°26.453 3°10.704 8.2 13 9.5 102650 44
2009-12-10 15:20 51°26.406 3°10.665 8.1 7 9.5 102650 41
2009-12-10 15:21 51°26.364 3°10.627 9.5 9 9.5 102670 44
2009-12-10 15:22 51°26.329 3°10.612 10.6 15 9.5 102670 44
2009-12-10 15:23 51°26.298 3°10.614 10 16 9.5 102670 41
2009-12-10 15:24 51°26.265 3°10.616 8.7 13 9.5 102650 44
2009-12-10 15:25 51°26.224 3°10.546 10.8 354 9.5 102650 42
2009-12-10 15:26 51°26.19 3°10.359 12.9 346 9.5 102650 42
2009-12-10 15:27 51°26.174 3°10.103 11.9 343 9.5 102660 44
2009-12-10 15:28 51°26.155 3°9.848 14.4 346 9.5 102660 44
2009-12-10 15:29 51°26.138 3°9.585 12.3 349 9.6 102670 43
2009-12-10 15:30 51°26.12 3°9.318 12.7 346 9.6 102660 43
2009-12-10 15:31 51°26.074 3°9.066 12.1 353 9.6 102670 43
2009-12-10 15:32 51°25.972 3°8.824 11.6 359 9.5 102660 44
2009-12-10 15:33 51°25.854 3°8.6 11.2 356 9.5 102670 43
2009-12-10 15:34 51°25.737 3°8.369 10.9 357 9.6 102660 43
2009-12-10 15:35 51°25.622 3°8.139 10.9 359 9.6 102670 43
2009-12-10 15:36 51°25.509 3°7.907 10.9 354 9.6 102660 43
2009-12-10 15:37 51°25.402 3°7.689 12.5 355 9.6 102660 42
2009-12-10 15:38 51°25.293 3°7.468 13 356 9.5 102670 42
2009-12-10 15:39 51°25.182 3°7.235 12.5 358 9.6 102670 43
2009-12-10 15:40 51°25.072 3°6.999 11.1 353 9.6 102680 43
2009-12-10 15:41 51°24.963 3°6.765 14.3 356 9.6 102680 41
2009-12-10 15:42 51°24.856 3°6.537 13.3 356 9.7 102660 44
2009-12-10 15:43 51°24.754 3°6.291 12.8 356 9.7 102690 43
2009-12-10 15:44 51°24.679 3°6.037 9.8 353 9.7 102700 44
2009-12-10 15:45 51°24.609 3°5.785 12.8 351 9.7 102680 42
2009-12-10 15:46 51°24.532 3°5.54 11.4 1 9.7 102690 42
2009-12-10 15:47 51°24.429 3°5.323 9.7 -999 9.7 102690 42
2009-12-10 15:48 51°24.273 3°5.191 9.2 10 9.7 102690 45
2009-12-10 15:49 51°24.095 3°5.091 10.6 9 9.7 102710 42
2009-12-10 15:50 51°23.916 3°4.999 10 13 9.7 102710 44
2009-12-10 15:51 51°23.734 3°4.906 4.4 16 9.7 102710 44
2009-12-10 15:52 51°23.552 3°4.806 10.1 11 9.6 102700 44
2009-12-10 15:53 51°23.372 3°4.701 7.4 11 9.7 102710 43
2009-12-10 15:54 51°23.191 3°4.598 10.8 10 9.7 102700 41
2009-12-10 15:55 51°23.033 3°4.429 8 5 9.6 102710 44
2009-12-10 15:56 51°22.893 3°4.219 9.5 3 9.7 102710 44
2009-12-10 15:57 51°22.758 3°3.999 10.9 3 9.7 102700 44
2009-12-10 15:58 51°22.62 3°3.784 11.5 2 9.7 102710 42
2009-12-10 15:59 51°22.499 3°3.554 13.4 2 9.7 102690 42
2009-12-10 16:00 51°22.378 3°3.319 11.2 358 9.7 102700 43
2009-12-10 16:01 51°22.257 3°3.084 9.6 1 9.7 102700 42
2009-12-10 16:02 51°22.134 3°2.856 9.5 360 9.7 102690 43
2009-12-10 16:03 51°22.01 3°2.627 10.8 -999 9.7 102700 43
2009-12-10 16:04 51°21.887 3°2.397 12.2 360 9.7 102690 43
2009-12-10 16:05 51°21.763 3°2.167 11.8 1 9.6 102690 44
2009-12-10 16:06 51°21.649 3°1.934 12.4 4 9.7 102700 43
2009-12-10 16:07 51°21.536 3°1.699 11.9 4 9.7 102680 43
2009-12-10 16:08 51°21.424 3°1.46 9.9 4 9.7 102690 42
2009-12-10 16:09 51°21.311 3°1.218 10.8 1 9.7 102710 41
2009-12-10 16:10 51°21.197 3°0.976 11.3 1 9.7 102690 44
2009-12-10 16:11 51°21.085 3°0.73 10.1 2 9.7 102700 44
2009-12-10 16:12 51°20.973 3°0.487 11.9 -999 9.7 102700 42
2009-12-10 16:13 51°20.862 3°0.243 11.6 359 9.7 102710 42
2009-12-10 16:14 51°20.767 2°59.986 13.5 360 9.7 102720 44
2009-12-10 16:15 51°20.673 2°59.723 12.3 359 9.7 102700 43
2009-12-10 16:16 51°20.583 2°59.466 10.6 356 9.7 102700 44
2009-12-10 16:17 51°20.491 2°59.205 11.5 360 9.7 102710 42
2009-12-10 16:18 51°20.399 2°58.944 10.4 3 9.7 102710 41
2009-12-10 16:19 51°20.304 2°58.679 13.7 -999 9.7 102700 42
2009-12-10 16:20 51°20.211 2°58.417 11.5 355 9.7 102720 44
2009-12-10 16:21 51°20.115 2°58.151 12.7 360 9.7 102710 41
2009-12-10 16:22 51°20.022 2°57.885 12 360 9.7 102710 43
2009-12-10 16:23 51°19.929 2°57.619 12.4 355 9.7 102720 41
2009-12-10 16:24 51°19.834 2°57.355 11.1 1 9.7 102710 43
2009-12-10 16:25 51°19.738 2°57.093 11.3 357 9.7 102710 43
2009-12-10 16:26 51°19.64 2°56.828 12.9 360 9.7 102710 42
2009-12-10 16:27 51°19.546 2°56.573 13.2 358 9.7 102710 44
2009-12-10 16:28 51°19.451 2°56.309 11 2 9.7 102710 42
2009-12-10 16:29 51°19.356 2°56.044 10.4 2 9.7 102720 41
2009-12-10 16:30 51°19.261 2°55.779 10.2 353 9.7 102730 41
2009-12-10 16:31 51°19.166 2°55.519 12.7 359 9.7 102710 42
2009-12-10 16:32 51°19.069 2°55.251 11.7 360 9.8 102720 42
2009-12-10 16:33 51°18.972 2°54.992 10.8 359 9.8 102730 43
2009-12-10 16:34 51°18.874 2°54.728 11.2 3 9.8 102720 43
2009-12-10 16:35 51°18.78 2°54.466 12.2 1 9.8 102740 44
2009-12-10 16:36 51°18.683 2°54.204 11.2 357 9.8 102720 44
2009-12-10 16:37 51°18.586 2°53.947 11.7 2 9.8 102720 44
2009-12-10 16:38 51°18.49 2°53.682 9.7 359 9.8 102730 43
2009-12-10 16:39 51°18.393 2°53.424 12.4 358 9.8 102730 44
2009-12-10 16:40 51°18.302 2°53.166 10.6 359 9.8 102720 42
2009-12-10 16:41 51°18.211 2°52.917 12.5 357 9.8 102720 44
2009-12-10 16:42 51°18.112 2°52.68 9.7 5 9.9 102730 44
2009-12-10 16:43 51°17.96 2°52.525 7.5 21 9.8 102750 41
2009-12-10 16:44 51°17.775 2°52.487 5.9 23 9.8 102760 41
2009-12-10 16:45 51°17.588 2°52.471 7.1 23 9.8 102770 40
2009-12-10 16:46 51°17.403 2°52.446 6.8 20 9.8 102770 42
2009-12-10 16:47 51°17.218 2°52.422 8.1 22 9.9 102780 40
2009-12-10 16:48 51°17.035 2°52.389 7.7 19 9.9 102770 41
2009-12-10 16:49 51°16.853 2°52.397 3.4 25 9.9 102780 40
2009-12-10 16:50 51°16.68 2°52.509 1.6 56 9.9 102780 43
2009-12-10 16:51 51°16.514 2°52.651 0.2 29 9.9 102780 41
2009-12-10 16:52 51°16.352 2°52.794 1.8 52 9.9 102780 42
2009-12-10 16:53 51°16.188 2°52.932 4.3 57 9.9 102780 41
2009-12-10 16:54 51°16.02 2°53.06 2.3 52 9.9 102780 43
2009-12-10 16:55 51°15.85 2°53.186 3.5 58 10 102770 46
2009-12-10 16:56 51°15.683 2°53.316 3.2 54 9.9 102780 41
2009-12-10 16:57 51°15.515 2°53.444 3.1 54 9.9 102780 41
2009-12-10 16:58 51°15.378 2°53.553 2.6 52 9.9 102780 40
2009-12-10 16:59 51°15.301 2°53.693 5.1 51 10 102780 41
2009-12-10 17:00 51°15.242 2°53.816 5.4 56 10 102790 43
2009-12-10 17:01 51°15.189 2°53.927 5.1 52 10 102780 43
2009-12-10 17:02 51°15.143 2°54.03 6.3 51 10 102780 41
2009-12-10 17:03 51°15.106 2°54.118 5.7 56 9.9 102780 41
2009-12-10 17:04 51°15.076 2°54.189 5.7 55 9.9 102780 41
2009-12-10 17:05 51°15.053 2°54.247 6.5 51 9.9 102790 45
2009-12-10 17:06 51°15.035 2°54.301 6.2 51 9.9 102790 45
2009-12-10 17:07 51°15.019 2°54.351 6.3 51 9.9 102780 45
2009-12-10 17:08 51°15.004 2°54.401 6.6 53 9.9 102780 42
2009-12-10 17:09 51°14.984 2°54.461 4.2 56 9.9 102780 44
2009-12-10 17:10 51°14.929 2°54.549 2.8 55 10 102780 46
2009-12-10 17:11 51°14.793 2°54.683 0.1 34 10.4 102770 40
2009-12-10 17:12 51°14.632 2°54.825 1.9 42 10.3 102780 39
2009-12-10 17:13 51°14.471 2°54.957 1.7 39 10.2 102780 41
2009-12-10 17:14 51°14.327 2°55.139 1.1 305 10.1 102780 42
2009-12-10 17:15 51°14.199 2°55.346 2 45 10.1 102770 39
2009-12-10 17:16 51°14.075 2°55.45 3.4 43 10 102770 45
2009-12-10 17:17 51°13.967 2°55.525 3.6 34 9.9 102770 39
2009-12-10 17:18 51°13.853 2°55.607 0.9 51 9.9 102770 40
2009-12-10 17:19 51°13.753 2°55.718 4.5 53 9.9 102770 44
2009-12-10 17:20 51°13.705 2°55.809 4.9 51 9.9 102780 40
2009-12-10 17:21 51°13.675 2°55.909 4.9 52 9.9 102780 40
2009-12-10 17:22 51°13.663 2°55.954 6.9 58 9.9 102780 40